Station SGNW3 - Sheboygan, WI Image indicating link to RSS feed of recent meteorological observations for station SGNW3


Conditions at SGNW3 as of
(2:00 pm CDT)
1900 GMT on 06/14/2024:
     

Click on the graph icon in the table below to see a time series plot of the last five days of that observation.

5-day plot - Wind Direction Wind Direction (WDIR): N ( 360 deg true )
5-day plot - Wind Speed Wind Speed (WSPD): 9 kts
5-day plot - Wind Gust Wind Gust (GST): 10 kts
5-day plot - Atmospheric Pressure Atmospheric Pressure (PRES):30.07 in
5-day plot - Pressure Tendency Pressure Tendency (PTDY):+0.04 in ( Rising )
5-day plot - Air Temperature Air Temperature (ATMP): 57.6 °F
5-day plot - Wind Speed at 10 Meters Wind Speed at 10 meters (WSPD10M): 10 kts
5-day plot - Wind Speed at 20 Meters Wind Speed at 20 meters (WSPD20M): 10 kts
5-day plot -  Wind Speed, Wind Gust and Atmospheric Pressure Combined plot of Wind Speed, Gust, and Air Pressure
Continuous Winds
TIME
(CDT)
5-day plot - Wind Direction WDIR 5-day plot - Wind Speed WSPD
2:00 pmN ( 3 deg ) 10 kts
1:50 pmN ( 5 deg ) 11 kts
1:40 pmN ( 7 deg ) 12 kts
1:30 pmN ( 3 deg ) 11 kts
1:20 pmN ( 4 deg ) 11 kts
1:10 pmN ( 4 deg ) 11 kts
 
Peak gust during the measurement hour
TIME
(CDT)
5-day plot - Gust Direction GDR 5-day plot - Gust Speed GST
1:36 pmN ( 10 deg ) 13 kts
Previous observations
TIME
(CDT)
5-day plot - Wind Direction
WDIR
 
5-day plot - Wind Speed
WSPD
kts
5-day plot - Wind Gust
GST
kts
5-day plot - Wave Height
WVHT
ft
5-day plot - Dominant Wave Period
DPD
sec
5-day plot - Average Wave Period
APD
sec
5-day plot - Mean Wave Direction
MWD
 
5-day plot - Atmospheric Pressure
PRES
in
5-day plot - Pressure Tendency
PTDY
in
5-day plot - Air Temperature
ATMP
°F
5-day plot - Water Temperature
WTMP
°F
5-day plot - Dew Point
DEWP
°F
5-day plot - Salinity
SAL
psu
5-day plot - Visibility
VIS
nmi
5-day plot - Tide (above MLLW)
TIDE
ft
2024-06-14 01:00 pm N 11 11----30.07+0.05 57.4-----
2024-06-14 12:00 pm N 10 11----30.05+0.05 57.4-----
2024-06-14 11:00 am N 8 9----30.03+0.04 57.9-----
2024-06-14 10:00 am N 9 10----30.01+0.06 57.6-----
2024-06-14 09:00 am N 9 10----30.00+0.06 58.3-----
2024-06-14 08:00 am N 10 10----29.99+0.06 61.9-----
2024-06-14 07:00 am N 8 9----29.95+0.04 62.4-----
2024-06-14 06:00 am NW 5 6----29.94+0.04 61.9-----
2024-06-14 05:00 amWSW 3 4----29.93+0.04 62.6-----
2024-06-14 04:00 am E 1 2----29.91+0.02 61.7-----
2024-06-14 03:00 am E 7 8----29.89+0.04 63.0-----
2024-06-14 02:00 amNNE 7 8----29.89+0.04 61.2-----
2024-06-14 01:00 am N 15 16----29.89+0.04 61.0-----
2024-06-14 12:00 am W 10 12----29.85+0.03 72.3-----
2024-06-13 11:00 pm W 9 9----29.85+0.04 72.5-----
2024-06-13 10:00 pmWSW 5 6----29.84+0.07 75.4-----
2024-06-13 09:00 pm W 6 7----29.82+0.06 78.3-----
2024-06-13 08:00 pm W 5 8----29.80+0.05 80.6-----
2024-06-13 07:00 pm NW 9 12----29.77+0.03 81.3-----
2024-06-13 06:00 pm NW 10 12----29.76+0.00 81.5-----
2024-06-13 05:00 pmWNW 15 18----29.75+0.00 81.9-----
2024-06-13 04:00 pm NW 19 24----29.74-0.02 80.6-----
2024-06-13 03:00 pmWNW 20 26----29.76+0.02 82.0-----
2024-06-13 02:00 pmWSW 12 15----29.76+0.01 79.2-----